Dewpoint
58 58 58 58 58 57 58 58 57 58 59 59 59 58 58 59 59 58 57 57 58 57 56 55 56 57 57 59 59 60 60 58 54 40 39 33 48 58 59 54 59 61 60 46 36 27 27 26 26 24 29 26 28 31 36 33 36 33 30 29 27 27 26 28 25 23 26 13 12 17 12 11 6 10 15 12 12 15 14 14 15 15 14 13 10 25 26 28
57 58 58 58 58 58 58 58 58 58 58 59 59 58 57 59 59 59 58 57 57 56 56 56 56 57 57 58 59 60 59 56 50 42 34 43 56 54 56 57 59 61 49 29 25 29 28 23 24 27 25 24 33 31 33 33 32 31 29 29 27 27 28 29 26 25 13 15 12 13 15 11 8 12 11 10 10 10 9 10 13 13 14 14 15 16 25 29
58 58 58 58 58 58 58 58 58 58 58 58 58 57 58 57 58 59 58 57 55 55 55 56 55 56 58 58 59 60 56 50 42 31 30 55 57 55 55 59 60 60 45 27 33 29 27 24 22 26 28 24 28 29 33 33 30 30 30 28 28 30 28 28 24 18 15 16 13 13 14 13 12 13 13 11 10 10 8 9 8 10 9 10 12 19 28 30
57 57 57 57 58 58 58 58 58 58 58 57 56 57 57 57 57 58 59 58 55 54 56 56 55 57 58 59 59 57 51 47 34 31 37 56 58 56 57 59 60 58 51 44 34 30 24 24 23 26 28 26 27 29 30 30 30 29 28 27 28 29 28 27 27 19 14 14 13 13 14 12 12 12 10 10 10 12 11 10 9 9 8 8 8 21 31 28
56 56 56 57 57 57 58 58 58 58 58 55 56 57 58 58 56 57 58 58 56 55 55 55 56 58 59 59 59 52 45 33 33 39 42 53 57 55 59 62 61 54 47 46 32 32 33 28 31 27 26 24 26 26 25 26 30 29 28 29 26 26 25 26 23 19 15 18 13 14 12 13 13 14 11 10 10 14 15 11 9 9 9 8 6 8 28 27
56 56 56 57 57 57 57 58 58 58 58 56 57 58 58 58 58 55 58 58 55 54 53 53 55 56 59 60 56 49 35 19 36 42 53 55 56 57 60 61 60 50 34 31 30 25 21 22 24 24 23 24 24 24 24 22 24 23 23 21 24 21 24 24 18 18 15 14 13 13 14 13 13 12 13 10 10 14 14 10 8 8 8 8 10 18 26 26
55 56 56 56 56 57 57 57 57 57 57 58 58 56 55 56 56 55 55 56 57 56 56 55 55 57 60 57 52 44 36 28 40 42 55 57 53 57 58 60 54 36 31 28 25 23 26 22 22 25 24 24 23 24 24 20 20 23 21 21 20 21 21 19 16 22 15 14 14 14 17 13 12 13 13 12 12 12 13 12 11 8 10 13 8 15 15 22
54 55 55 56 56 56 56 56 57 57 57 57 57 57 56 56 56 56 55 57 57 57 57 55 55 56 59 50 42 39 36 32 33 42 54 53 43 56 53 43 41 38 32 27 28 31 26 23 20 26 24 21 22 22 21 19 20 19 19 20 19 18 19 17 15 18 17 14 14 16 15 14 12 13 12 12 13 13 13 13 13 13 12 11 10 8 12 17
54 54 55 55 55 55 56 56 56 56 56 57 57 57 57 58 56 54 51 52 56 57 57 56 54 57 58 47 42 33 32 43 39 43 46 42 39 40 42 38 38 34 35 32 36 31 29 28 25 23 19 21 23 22 20 20 20 19 19 20 18 14 13 13 16 16 19 18 17 15 14 14 13 13 14 14 15 15 14 12 12 12 11 11 11 11 10 11
54 54 54 54 55 55 55 55 56 56 56 56 56 57 57 58 58 58 54 52 51 53 58 58 58 58 49 44 40 28 37 45 46 44 45 43 40 40 41 42 34 31 28 31 36 34 28 29 26 26 25 19 23 17 19 20 18 19 18 18 16 15 11 14 14 14 17 20 21 17 15 15 16 16 13 13 13 13 10 10 11 12 11 11 11 11 11 10
53 53 54 54 54 54 55 55 55 55 56 56 56 56 56 57 58 58 58 57 57 57 57 58 60 58 49 43 34 29 44 46 44 45 46 45 40 40 39 41 40 33 32 35 34 33 33 31 34 29 25 21 20 16 20 22 18 15 12 9 8 9 9 10 9 12 15 12 19 17 15 18 19 14 13 12 11 13 9 9 9 8 9 10 11 11 13 13
52 53 53 53 53 54 54 54 54 55 55 56 56 56 56 57 57 57 58 58 58 58 58 59 60 55 47 44 40 37 44 45 46 45 47 47 41 40 41 42 43 38 32 29 34 40 37 37 32 26 24 21 15 13 13 16 13 12 9 6 6 6 2 4 5 11 14 12 18 17 12 12 17 13 13 13 11 8 8 7 7 6 6 8 11 12 12 12
51 52 52 53 53 53 53 54 54 54 55 55 55 55 56 56 56 57 58 57 57 57 58 59 57 52 41 34 34 46 48 45 46 46 47 47 44 45 46 46 44 40 37 32 34 40 41 37 36 28 30 23 16 14 14 14 11 8 6 8 3 7 0 2 13 14 12 11 18 10 -2 -5 3 11 11 12 6 3 2 1 1 3 5 8 11 11 12 13
51 51 52 52 52 53 53 53 54 54 54 54 55 55 56 56 56 57 57 57 58 59 59 59 53 49 38 31 41 42 45 48 46 43 44 46 40 40 38 45 44 44 43 42 41 41 41 38 36 32 31 20 16 26 15 21 14 6 5 6 4 2 1 3 13 13 9 16 14 5 2 -7 7 0 1 6 8 4 5 6 11 13 12 12 13 13 13 13
50 51 51 52 52 52 52 53 53 53 53 54 54 55 55 56 56 56 56 58 58 59 59 59 52 44 36 36 45 48 52 45 40 41 45 44 41 38 38 45 41 43 42 41 41 41 39 32 27 24 18 28 25 14 13 14 16 22 1 4 15 2 4 8 18 11 7 13 18 4 6 1 2 4 5 15 15 11 11 11 10 10 10 11 11 11 12 12
50 50 50 51 51 51 52 52 52 53 53 54 54 54 55 55 56 57 58 59 59 59 50 45 47 46 36 34 38 54 45 39 37 42 44 46 44 39 41 44 41 40 41 39 42 39 37 34 25 22 24 18 22 20 17 8 12 17 2 10 11 9 5 2 15 14 19 14 15 4 2 3 3 3 6 17 12 13 10 9 10 10 11 12 13 14 15 16
50 50 50 50 50 51 51 51 52 52 53 53 54 54 55 56 56 57 58 57 54 55 52 48 48 44 35 41 43 37 39 44 43 42 43 46 45 43 37 38 36 36 34 34 36 33 30 29 26 22 29 17 21 18 3 7 6 5 12 4 16 4 6 3 6 19 20 11 9 10 8 6 5 6 7 8 12 10 11 11 12 13 14 15 17 18 18 18
49 50 50 50 50 50 51 51 51 52 52 53 54 55 54 55 57 54 55 55 53 52 50 49 45 32 28 39 34 33 43 44 42 40 41 45 46 43 36 33 33 35 34 26 28 23 28 22 30 20 15 23 12 8 5 6 10 12 10 9 9 16 11 5 8 8 15 18 11 11 10 9 10 10 10 11 12 12 13 13 15 15 16 18 19 20 20 20
49 49 49 50 50 50 50 51 51 52 53 53 54 55 56 56 50 51 49 46 38 33 30 32 29 25 28 34 39 41 41 40 43 40 38 43 44 44 41 39 33 25 23 25 19 22 25 19 23 17 13 12 12 9 5 13 18 17 17 13 15 14 12 9 11 11 17 15 16 15 13 10 10 12 13 15 16 16 17 18 20 21 22 22 22 22 22 23
48 49 49 49 50 50 50 50 51 51 52 52 47 43 34 30 36 35 43 44 36 37 36 37 36 36 36 38 38 42 43 41 38 36 42 43 43 38 33 38 35 32 21 16 25 26 27 15 13 15 14 15 17 16 13 12 21 22 20 18 17 16 15 16 14 15 22 20 18 17 17 16 17 18 19 19 20 22 22 22 23 23 24 24 23 23 23 24
48 49 49 49 50 50 50 50 51 51 52 49 47 36 24 30 26 28 33 41 42 41 38 38 36 35 35 40 41 40 34 34 38 38 41 45 43 31 28 29 29 21 22 28 24 28 25 10 14 18 19 15 16 22 25 25 25 22 19 19 15 18 13 13 14 23 27 18 19 23 23 23 22 22 22 22 22 22 21 21 21 21 21 22 22 23 23 23
48 48 49 49 49 50 50 50 51 52 53 47 43 38 36 38 34 29 27 24 33 40 39 39 41 38 41 42 42 41 36 32 31 36 40 40 35 23 26 29 23 16 24 22 22 21 15 13 19 23 22 27 27 27 25 21 22 22 20 19 19 19 20 18 20 24 27 23 21 24 23 22 21 21 21 21 21 21 22 22 21 22 22 23 23 24 25 25
48 48 49 49 49 49 50 51 52 53 47 44 41 37 36 40 43 40 32 27 28 35 39 38 38 36 38 40 43 40 33 31 27 35 38 37 31 27 26 24 26 26 25 23 18 19 17 21 24 24 26 28 27 26 25 23 24 23 19 19 17 20 13 10 15 25 26 22 23 24 23 21 19 17 17 18 19 21 23 24 24 25 24 23 22 22 24 25
48 48 48 49 49 50 51 52 53 50 47 42 39 37 38 41 42 34 27 24 24 31 37 38 35 36 36 36 42 34 31 30 32 33 40 33 29 27 29 29 26 24 23 22 22 17 19 28 29 28 29 27 25 24 23 21 20 22 23 20 18 17 14 12 10 22 24 21 24 22 17 15 20 18 17 19 20 24 25 23 22 23 27 27 28 28 28 27
47 48 48 49 49 50 51 52 49 45 41 39 38 39 39 43 42 39 26 20 19 25 36 34 38 36 38 41 40 35 33 33 34 36 39 34 32 28 25 29 26 24 25 25 24 21 22 27 30 29 27 26 24 21 21 22 17 20 22 21 19 14 16 22 25 20 20 20 23 19 13 18 18 19 18 18 13 12 17 19 19 18 21 25 24 25 27 30
47 48 48 49 49 51 51 47 38 41 36 33 33 39 41 41 42 34 22 13 9 23 29 29 36 29 37 32 37 34 30 28 34 37 43 40 38 28 31 28 22 16 26 24 25 24 24 29 28 27 27 26 24 22 23 21 18 11 12 22 21 19 22 25 23 20 18 12 17 23 13 13 18 12 11 10 15 16 17 18 18 19 24 27 29 29 27 26
47 48 49 49 50 51 40 32 43 35 30 29 43 41 41 42 40 26 13 13 7 20 25 31 29 28 30 31 35 27 17 22 36 35 35 37 35 36 28 28 26 28 27 26 12 15 28 28 27 25 24 23 23 20 22 22 15 15 23 24 25 24 23 23 22 18 19 21 21 21 19 14 15 14 16 19 19 17 16 15 19 23 27 27 26 24 23 23
47 48 49 49 49 50 41 43 41 32 27 39 41 41 42 42 40 32 20 -1 -5 29 26 29 33 37 38 37 34 26 24 33 27 30 35 36 33 32 30 27 26 27 29 19 12 20 28 28 27 26 23 20 21 23 22 22 17 19 24 26 25 24 24 23 22 21 21 16 17 20 20 13 17 20 22 20 15 13 14 16 19 19 23 25 25 24 23 23
47 48 49 49 50 50 45 43 39 37 41 42 41 41 42 35 33 24 10 0 4 29 35 29 35 35 34 35 31 33 31 34 28 34 37 38 36 31 29 28 26 28 28 20 14 21 25 25 27 27 25 23 24 26 26 23 19 24 26 26 25 25 25 23 22 23 21 13 15 17 16 6 12 17 20 18 14 15 17 19 20 20 21 24 23 22 22 23
47 48 49 50 47 46 43 40 40 41 42 41 41 41 34 31 24 17 -2 -2 24 13 29 29 27 26 30 28 27 32 29 29 35 35 35 34 33 35 33 33 29 28 27 27 23 24 29 32 32 26 25 25 26 28 27 27 28 27 27 25 24 24 20 20 19 18 16 8 16 18 19 9 8 17 16 12 16 17 18 20 19 19 20 20 21 21 23 21
48 48 48 49 43 38 39 38 38 41 40 41 40 35 28 22 18 6 -5 10 21 18 28 25 24 30 27 23 22 28 29 31 29 31 30 32 30 33 31 26 30 25 24 25 24 27 28 27 29 27 29 27 27 26 27 27 28 27 24 21 18 18 17 17 7 12 10 10 17 19 20 14 6 15 18 18 18 19 18 16 15 16 16 18 20 21 21 22
48 49 49 48 44 43 36 32 38 42 41 39 34 29 24 13 9 -0 -1 21 10 15 18 20 28 27 27 28 27 27 26 29 31 28 27 26 27 27 27 22 24 13 16 17 14 23 23 27 26 27 32 27 25 26 25 25 25 25 22 21 9 12 10 3 8 3 6 8 14 17 19 14 15 10 9 12 14 15 16 17 16 16 17 19 19 20 22 23
48 49 49 48 48 41 40 38 39 42 42 37 31 26 18 13 1 13 8 11 8 19 17 29 27 29 28 24 24 26 27 25 28 29 28 28 26 27 27 25 26 17 9 17 19 18 22 27 27 27 26 30 25 21 21 19 23 23 22 18 10 5 1 -2 -2 -1 4 10 15 17 17 13 16 15 16 16 16 17 18 18 20 20 19 19 20 21 22 25
48 49 46 42 43 42 43 41 40 42 38 37 23 22 16 3 6 26 7 10 9 22 27 27 26 26 23 23 24 27 25 27 27 27 28 24 26 24 26 27 25 22 23 21 16 16 10 16 20 26 24 27 27 23 23 21 24 25 23 20 16 7 2 -1 -4 -3 -2 9 13 15 9 15 8 12 19 17 17 18 18 18 20 21 22 22 22 24 24 25
49 45 43 41 42 42 42 39 41 43 33 27 21 18 7 10 9 6 9 12 16 25 23 24 24 24 24 21 24 26 26 22 27 26 26 24 22 23 24 25 26 26 24 17 22 14 17 19 23 28 28 28 27 28 26 24 23 24 24 22 17 16 15 5 7 4 3 9 9 11 14 20 14 19 20 18 17 15 17 17 22 20 22 23 23 23 23 24
45 44 44 41 42 42 38 39 41 37 29 24 20 7 9 11 3 9 9 22 23 22 24 23 23 20 19 20 20 25 27 23 25 23 23 24 24 24 24 25 27 27 21 19 21 13 15 14 27 26 27 27 27 27 28 25 16 22 22 17 22 22 18 9 9 7 8 8 12 10 16 18 18 12 14 20 13 10 11 11 12 13 16 18 19 21 22 25
36 37 36 37 40 41 37 39 39 32 26 21 18 10 16 8 16 18 30 18 19 25 17 6 12 15 11 14 21 23 25 22 22 22 19 23 22 24 23 24 27 26 26 23 19 22 16 17 25 25 25 26 26 27 26 27 25 22 18 22 24 24 20 14 9 5 1 5 12 11 13 13 10 9 22 14 11 9 10 10 11 14 16 15 19 21 22 24
38 36 37 39 41 38 37 38 35 31 28 20 14 34 13 6 20 18 26 27 26 21 15 8 9 20 15 14 14 23 25 21 23 17 14 19 13 25 24 23 26 27 27 26 15 21 19 15 22 26 25 25 24 26 25 25 27 24 22 23 18 10 10 12 9 4 2 2 5 11 13 13 14 11 15 9 9 9 9 12 13 12 13 15 16 18 20 23
36 31 27 37 42 41 38 36 34 29 23 18 15 16 22 15 22 30 30 27 26 20 16 17 8 12 18 15 18 24 23 18 20 19 11 15 11 21 23 25 25 28 26 25 19 21 18 10 19 23 24 25 22 24 21 23 25 24 25 22 20 18 12 9 14 10 8 6 2 12 10 8 17 15 17 9 9 11 11 12 12 13 14 15 16 19 21 23
32 15 16 33 38 38 39 36 31 26 23 20 16 16 16 15 18 25 31 28 25 17 19 18 19 13 15 18 23 20 23 20 20 20 12 16 16 24 22 26 25 28 25 26 23 25 16 14 10 19 22 22 21 22 21 24 23 22 22 19 18 14 19 19 10 13 10 0 0 2 10 13 15 16 15 12 11 11 11 12 15 16 16 17 19 20 21 22
26 19 20 32 40 40 38 33 26 22 19 15 17 14 15 13 26 27 30 31 31 30 26 22 22 15 17 14 16 22 22 20 21 20 17 17 16 12 21 25 27 26 26 24 22 20 16 14 17 20 20 18 21 23 22 24 24 24 23 22 21 18 12 8 14 9 6 7 8 0 10 15 13 18 14 12 12 13 15 16 16 16 16 18 20 21 21 23
18 7 17 33 38 38 32 23 17 15 15 20 20 17 17 31 22 25 29 27 28 29 27 25 24 21 17 16 20 20 22 20 20 19 21 18 20 18 22 24 25 27 27 25 25 26 22 17 18 15 19 20 22 23 24 23 22 20 24 21 22 19 18 10 4 10 9 10 6 6 5 13 17 18 17 15 14 13 14 17 16 16 17 18 18 19 21 23
19 18 27 37 37 34 26 16 24 25 16 20 21 22 28 28 21 25 27 26 24 26 27 23 24 22 22 18 16 17 22 19 21 20 21 19 19 21 20 22 26 25 25 22 22 22 28 14 12 20 19 20 20 20 22 21 22 21 21 20 20 20 19 18 15 13 11 7 8 5 6 13 19 22 17 16 16 19 20 18 17 17 17 19 19 20 23 24
23 24 29 32 35 33 23 15 15 20 18 16 21 20 25 25 25 23 24 25 23 25 26 26 22 24 20 23 20 15 21 10 18 21 18 21 21 24 23 24 22 25 21 22 23 27 16 21 18 10 11 15 13 17 15 13 18 20 20 21 21 20 18 18 15 12 10 13 15 11 10 13 16 23 22 21 19 18 17 17 20 19 19 21 21 22 23 23
21 22 29 32 36 32 22 22 18 18 22 17 16 15 23 21 24 26 26 24 26 24 23 23 23 23 21 21 18 17 18 16 10 17 19 22 21 26 24 24 25 24 28 29 29 25 18 18 17 8 6 0 -3 -6 -0 6 19 21 19 21 21 21 18 16 13 10 10 13 14 6 11 14 15 16 14 14 17 17 17 17 18 20 19 19 20 22 22 22
22 9 17 25 24 29 28 25 22 20 17 16 15 18 20 18 21 27 23 23 26 26 25 25 26 24 22 21 18 17 16 16 14 10 18 17 20 23 25 23 25 26 29 32 32 22 13 15 16 17 14 12 10 15 14 23 17 15 18 20 21 21 20 18 16 10 15 12 14 14 15 14 14 14 14 14 14 14 16 16 17 18 19 21 20 22 22 22
22 10 14 16 21 22 26 23 23 20 20 20 15 17 16 18 18 20 21 19 23 24 24 25 25 20 19 20 18 16 13 15 15 14 15 18 20 24 22 24 24 25 32 33 31 18 13 15 19 17 16 17 16 13 16 21 15 16 17 18 20 21 20 19 17 16 18 11 14 17 18 17 16 16 16 16 17 17 17 16 16 16 20 21 22 22 27 23
11 22 21 23 22 18 20 26 26 24 22 18 18 17 15 15 18 17 24 24 23 21 20 18 24 25 23 21 20 13 13 14 9 14 16 18 18 19 22 25 25 30 32 26 27 21 17 14 18 17 17 18 19 18 22 21 18 17 17 18 20 21 20 19 20 20 17 16 13 13 16 17 17 17 17 17 17 16 16 16 17 17 19 20 20 21 21 22
19 19 20 17 14 18 24 24 27 27 25 19 21 18 14 15 16 18 20 22 22 21 24 16 20 25 25 23 19 15 14 9 12 11 13 13 17 18 16 17 21 24 25 23 23 13 20 18 14 16 17 18 19 19 20 19 18 18 18 18 19 20 21 21 20 21 21 19 19 19 18 18 17 16 16 16 17 17 17 18 19 20 20 21 22 22 22 22
23 17 16 22 19 16 21 22 26 26 25 26 19 20 18 16 16 18 20 19 16 18 22 19 20 23 25 23 21 17 18 17 14 11 13 18 11 19 17 19 18 25 23 20 21 19 20 17 22 12 13 17 18 17 18 19 18 18 18 19 20 19 19 21 21 21 22 21 21 21 20 20 19 19 19 19 19 20 20 20 20 21 22 22 22 22 22 22
26 25 24 20 17 15 22 23 25 25 22 21 21 22 19 19 18 20 19 23 18 18 22 21 21 21 23 24 23 21 22 21 19 15 19 20 15 20 15 11 24 23 21 19 19 18 16 14 9 9 11 10 7 12 12 14 16 15 16 19 19 19 18 19 19 20 19 19 20 19 19 18 19 19 20 21 21 21 20 20 20 21 21 21 21 21 21 21
29 28 25 22 14 27 19 21 20 22 19 23 23 22 20 20 20 20 15 19 23 22 24 23 22 21 17 22 24 24 25 23 22 21 22 22 22 22 20 19 24 24 23 23 19 18 18 12 10 7 8 7 13 10 11 9 4 3 10 15 16 18 19 19 20 20 21 20 17 16 14 15 15 16 14 15 18 18 18 18 19 19 20 20 20 20 20 20